Location: Amsterdam
(30.7274°N, 84.4357°W)
Time: 19:20:44
(UTC+00:00)

Courier 1B Rocket - Pass Details

Date: 16 February 2026
Orbit: 920 x 1201 km, 28.2° (Epoch: 10 March)

Event Time Altitude Azimuth Distance (km) Brightness Sun altitude
Rises 23:14:18 0° 218° (SW) 3,544 8.9 1.7°
Reaches altitude 10° 23:17:26 10° 204° (SSW) 2,597 7.9 1.1°
Maximum altitude 23:22:10 23° 154° (SSE) 1,849 6.4 0.1°
Drops below altitude 10° 23:26:59 10° 103° (ESE) 2,642 6.7 -0.9°
Enters shadow 23:29:57 - 90° (E) 3,541 7.3 -1.5°
Sets 23:30:12 0° 90° (E) 3,621 - -1.6°
